Year,Month,Day,Hour,Minute,Value (Times are PST for windspeed in km/hr)
2006,02,03,00,00,1.80
2006,02,03,00,01,2.80
2006,02,03,00,02,3.00
2006,02,03,00,03,2.90
2006,02,03,00,04,3.00
2006,02,03,00,05,2.20
2006,02,03,00,06,3.10
2006,02,03,00,07,1.50
2006,02,03,00,08,0.00
2006,02,03,00,09,1.40
2006,02,03,00,10,2.10
2006,02,03,00,11,1.40
2006,02,03,00,12,0.00
2006,02,03,00,13,0.00
2006,02,03,00,14,0.00
2006,02,03,00,15,0.00
2006,02,03,00,16,0.00
2006,02,03,00,17,0.00
2006,02,03,00,18,0.00
2006,02,03,00,19,0.00
2006,02,03,00,20,0.00
2006,02,03,00,21,0.00
2006,02,03,00,22,0.00
2006,02,03,00,23,0.00
2006,02,03,00,24,0.00
2006,02,03,00,25,0.00
2006,02,03,00,26,0.00
2006,02,03,00,27,0.30
2006,02,03,00,28,1.50
2006,02,03,00,29,0.60
2006,02,03,00,30,2.30
2006,02,03,00,31,0.50
2006,02,03,00,32,0.10
2006,02,03,00,33,1.50
2006,02,03,00,34,0.30
2006,02,03,00,35,0.70
2006,02,03,00,36,0.00
2006,02,03,00,37,1.90
2006,02,03,00,38,2.30
2006,02,03,00,39,2.00
2006,02,03,00,40,3.50
2006,02,03,00,41,2.90
2006,02,03,00,42,3.50
2006,02,03,00,43,3.20
2006,02,03,00,44,2.80
2006,02,03,00,45,1.70
2006,02,03,00,46,1.80
2006,02,03,00,47,3.50
2006,02,03,00,48,3.10
2006,02,03,00,49,1.70
2006,02,03,00,50,2.10
2006,02,03,00,51,1.60
2006,02,03,00,52,2.90
2006,02,03,00,53,3.00
2006,02,03,00,54,3.20
2006,02,03,00,55,5.10
2006,02,03,00,56,3.00
2006,02,03,00,57,4.10
2006,02,03,00,58,6.00
2006,02,03,00,59,3.50
2006,02,03,01,00,4.00
2006,02,03,01,01,4.40
2006,02,03,01,02,6.00
2006,02,03,01,03,4.20
2006,02,03,01,04,4.10
2006,02,03,01,05,5.60
2006,02,03,01,06,4.40
2006,02,03,01,07,6.10
2006,02,03,01,08,4.80
2006,02,03,01,09,4.70
2006,02,03,01,10,4.00
2006,02,03,01,11,4.60
2006,02,03,01,12,8.60
2006,02,03,01,13,7.10
2006,02,03,01,14,6.70
2006,02,03,01,15,6.40
2006,02,03,01,16,6.30
2006,02,03,01,17,5.30
2006,02,03,01,18,3.60
2006,02,03,01,19,5.70
2006,02,03,01,20,7.00
2006,02,03,01,21,4.00
2006,02,03,01,22,5.80
2006,02,03,01,23,2.10
2006,02,03,01,24,5.50
2006,02,03,01,25,4.70
2006,02,03,01,26,6.20
2006,02,03,01,27,4.70
2006,02,03,01,28,6.70
2006,02,03,01,29,4.40
2006,02,03,01,30,4.30
2006,02,03,01,31,6.10
2006,02,03,01,32,4.30
2006,02,03,01,33,1.80
2006,02,03,01,34,2.40
2006,02,03,01,35,2.00
2006,02,03,01,36,3.50
2006,02,03,01,37,5.30
2006,02,03,01,38,4.00
2006,02,03,01,39,3.40
2006,02,03,01,40,4.10
2006,02,03,01,41,4.70
2006,02,03,01,42,8.10
2006,02,03,01,43,9.60
2006,02,03,01,44,6.50
2006,02,03,01,45,3.90
2006,02,03,01,46,5.70
2006,02,03,01,47,7.10
2006,02,03,01,48,8.90
2006,02,03,01,49,7.60
2006,02,03,01,50,5.60
2006,02,03,01,51,2.70
2006,02,03,01,52,5.90
2006,02,03,01,53,8.90
2006,02,03,01,54,5.10
2006,02,03,01,55,5.80
2006,02,03,01,56,3.90
2006,02,03,01,57,5.50
2006,02,03,01,58,5.80
2006,02,03,01,59,7.20
2006,02,03,02,00,7.70
2006,02,03,02,01,5.90
2006,02,03,02,02,8.80
2006,02,03,02,03,8.40
2006,02,03,02,04,7.60
2006,02,03,02,05,7.60
2006,02,03,02,06,8.10
2006,02,03,02,07,8.30
2006,02,03,02,08,6.50
2006,02,03,02,09,7.60
2006,02,03,02,10,7.50
2006,02,03,02,11,11.30
2006,02,03,02,12,5.70
2006,02,03,02,13,3.30
2006,02,03,02,14,3.40
2006,02,03,02,15,9.60
2006,02,03,02,16,8.30
2006,02,03,02,17,4.50
2006,02,03,02,18,4.30
2006,02,03,02,19,4.70
2006,02,03,02,20,4.00
2006,02,03,02,21,6.20
2006,02,03,02,22,3.00
2006,02,03,02,23,3.50
2006,02,03,02,24,2.90
2006,02,03,02,25,1.90
2006,02,03,02,26,1.70
2006,02,03,02,27,0.30
2006,02,03,02,28,1.00
2006,02,03,02,29,0.00
2006,02,03,02,30,0.00
2006,02,03,02,31,0.20
2006,02,03,02,32,0.10
2006,02,03,02,33,0.00
2006,02,03,02,34,0.10
2006,02,03,02,35,0.00
2006,02,03,02,36,0.20
2006,02,03,02,37,0.30
2006,02,03,02,38,1.80
2006,02,03,02,39,0.90
2006,02,03,02,40,1.90
2006,02,03,02,41,1.90
2006,02,03,02,42,0.60
2006,02,03,02,43,0.00
2006,02,03,02,44,0.20
2006,02,03,02,45,2.00
2006,02,03,02,46,1.00
2006,02,03,02,47,0.00
2006,02,03,02,48,0.00
2006,02,03,02,49,0.00
2006,02,03,02,50,0.60
2006,02,03,02,51,1.90
2006,02,03,02,52,0.80
2006,02,03,02,53,0.30
2006,02,03,02,54,1.50
2006,02,03,02,55,3.40
2006,02,03,02,56,3.10
2006,02,03,02,57,2.60
2006,02,03,02,58,2.20
2006,02,03,02,59,0.70
2006,02,03,03,00,1.60
2006,02,03,03,01,2.50
2006,02,03,03,02,2.70
2006,02,03,03,03,3.20
2006,02,03,03,04,4.00
2006,02,03,03,05,3.00
2006,02,03,03,06,1.70
2006,02,03,03,07,2.00
2006,02,03,03,08,3.70
2006,02,03,03,09,4.30
2006,02,03,03,10,2.00
2006,02,03,03,11,3.50
2006,02,03,03,12,3.30
2006,02,03,03,13,1.90
2006,02,03,03,14,3.80
2006,02,03,03,15,3.80
2006,02,03,03,16,2.30
2006,02,03,03,17,2.10
2006,02,03,03,18,2.20
2006,02,03,03,19,2.40
2006,02,03,03,20,3.50
2006,02,03,03,21,4.60
2006,02,03,03,22,4.60
2006,02,03,03,23,3.00
2006,02,03,03,24,3.20
2006,02,03,03,25,3.50
2006,02,03,03,26,1.60
2006,02,03,03,27,1.70
2006,02,03,03,28,2.60
2006,02,03,03,29,1.40
2006,02,03,03,30,3.00
2006,02,03,03,31,5.30
2006,02,03,03,32,4.70
2006,02,03,03,33,3.30
2006,02,03,03,34,3.40
2006,02,03,03,35,3.10
2006,02,03,03,36,2.20
2006,02,03,03,37,2.80
2006,02,03,03,38,1.90
2006,02,03,03,39,2.00
2006,02,03,03,40,0.30
2006,02,03,03,41,1.90
2006,02,03,03,42,3.80
2006,02,03,03,43,4.00
2006,02,03,03,44,3.50
2006,02,03,03,45,0.20
2006,02,03,03,46,0.00
2006,02,03,03,47,0.40
2006,02,03,03,48,2.60
2006,02,03,03,49,1.20
2006,02,03,03,50,0.10
2006,02,03,03,51,0.00
2006,02,03,03,52,0.00
2006,02,03,03,53,0.00
2006,02,03,03,54,0.00
2006,02,03,03,55,0.00
2006,02,03,03,56,0.20
2006,02,03,03,57,0.00
2006,02,03,03,58,0.00
2006,02,03,03,59,0.00
2006,02,03,04,00,0.00
2006,02,03,04,01,0.00
2006,02,03,04,02,0.00
2006,02,03,04,03,0.00
2006,02,03,04,04,0.00
2006,02,03,04,05,0.00
2006,02,03,04,06,0.00
2006,02,03,04,07,0.00
2006,02,03,04,08,0.00
2006,02,03,04,09,0.00
2006,02,03,04,10,0.10
2006,02,03,04,11,0.10
2006,02,03,04,12,0.00
2006,02,03,04,13,1.40
2006,02,03,04,14,0.90
2006,02,03,04,15,3.20
2006,02,03,04,16,4.20
2006,02,03,04,17,5.30
2006,02,03,04,18,4.30
2006,02,03,04,19,4.20
2006,02,03,04,20,5.00
2006,02,03,04,21,5.60
2006,02,03,04,22,4.90
2006,02,03,04,23,6.00
2006,02,03,04,24,6.00
2006,02,03,04,25,6.60
2006,02,03,04,26,6.40
2006,02,03,04,27,6.30
2006,02,03,04,28,7.00
2006,02,03,04,29,6.50
2006,02,03,04,30,6.60
2006,02,03,04,31,7.30
2006,02,03,04,32,8.00
2006,02,03,04,33,8.00
2006,02,03,04,34,7.90
2006,02,03,04,35,7.20
2006,02,03,04,36,7.40
2006,02,03,04,37,8.10
2006,02,03,04,38,8.70
2006,02,03,04,39,9.00
2006,02,03,04,40,6.60
2006,02,03,04,41,7.00
2006,02,03,04,42,6.20
2006,02,03,04,43,7.30
2006,02,03,04,44,7.50
2006,02,03,04,45,6.80
2006,02,03,04,46,10.30
2006,02,03,04,47,8.10
2006,02,03,04,48,7.10
2006,02,03,04,49,6.70
2006,02,03,04,50,6.50
2006,02,03,04,51,6.30
2006,02,03,04,52,4.80
2006,02,03,04,53,5.80
2006,02,03,04,54,4.30
2006,02,03,04,55,8.10
2006,02,03,04,56,5.00
2006,02,03,04,57,5.30
2006,02,03,04,58,3.10
2006,02,03,04,59,4.60
2006,02,03,05,00,4.20
2006,02,03,05,01,4.90
2006,02,03,05,02,3.80
2006,02,03,05,03,3.50
2006,02,03,05,04,3.30
2006,02,03,05,05,2.80
2006,02,03,05,06,2.00
2006,02,03,05,07,2.20
2006,02,03,05,08,0.70
2006,02,03,05,09,1.40
2006,02,03,05,10,0.90
2006,02,03,05,11,0.00
2006,02,03,05,12,0.00
2006,02,03,05,13,0.00
2006,02,03,05,14,0.00
2006,02,03,05,15,0.00
2006,02,03,05,16,0.00
2006,02,03,05,17,0.00
2006,02,03,05,18,0.00
2006,02,03,05,19,0.00
2006,02,03,05,20,0.00
2006,02,03,05,21,0.00
2006,02,03,05,22,0.00
2006,02,03,05,23,0.00
2006,02,03,05,24,0.00
2006,02,03,05,25,0.00
2006,02,03,05,26,0.00
2006,02,03,05,27,0.00
2006,02,03,05,28,0.00
2006,02,03,05,29,1.40
2006,02,03,05,30,4.00
2006,02,03,05,31,2.60
2006,02,03,05,32,2.70
2006,02,03,05,33,2.30
2006,02,03,05,34,1.00
2006,02,03,05,35,1.00
2006,02,03,05,36,1.90
2006,02,03,05,37,3.60
2006,02,03,05,38,2.70
2006,02,03,05,39,4.90
2006,02,03,05,40,5.40
2006,02,03,05,41,4.70
2006,02,03,05,42,3.10
2006,02,03,05,43,1.30
2006,02,03,05,44,2.70
2006,02,03,05,45,2.30
2006,02,03,05,46,1.30
2006,02,03,05,47,0.00
2006,02,03,05,48,0.00
2006,02,03,05,49,2.90
2006,02,03,05,50,4.70
2006,02,03,05,51,4.40
2006,02,03,05,52,4.00
2006,02,03,05,53,4.30
2006,02,03,05,54,4.60
2006,02,03,05,55,3.30
2006,02,03,05,56,1.80
2006,02,03,05,57,1.30
2006,02,03,05,58,0.20
2006,02,03,05,59,0.10
2006,02,03,06,00,1.40
2006,02,03,06,01,3.00
2006,02,03,06,02,5.60
2006,02,03,06,03,7.50
2006,02,03,06,04,4.30
2006,02,03,06,05,3.00
2006,02,03,06,06,1.30
2006,02,03,06,07,1.80
2006,02,03,06,08,1.30
2006,02,03,06,09,0.10
2006,02,03,06,10,0.70
2006,02,03,06,11,2.30
2006,02,03,06,12,1.00
2006,02,03,06,13,1.80
2006,02,03,06,14,1.60
2006,02,03,06,15,0.30
2006,02,03,06,16,0.00
2006,02,03,06,17,0.00
2006,02,03,06,18,0.00
2006,02,03,06,19,0.00
2006,02,03,06,20,0.00
2006,02,03,06,21,0.00
2006,02,03,06,22,0.00
2006,02,03,06,23,0.00
2006,02,03,06,24,0.60
2006,02,03,06,25,1.50
2006,02,03,06,26,0.00
2006,02,03,06,27,1.10
2006,02,03,06,28,0.60
2006,02,03,06,29,2.80
2006,02,03,06,30,1.40
2006,02,03,06,31,2.60
2006,02,03,06,32,0.60
2006,02,03,06,33,1.30
2006,02,03,06,34,1.50
2006,02,03,06,35,0.20
2006,02,03,06,36,0.00
2006,02,03,06,37,1.00
2006,02,03,06,38,1.00
2006,02,03,06,39,2.30
2006,02,03,06,40,3.10
2006,02,03,06,41,3.20
2006,02,03,06,42,3.10
2006,02,03,06,43,2.90
2006,02,03,06,44,1.80
2006,02,03,06,45,0.90
2006,02,03,06,46,0.00
2006,02,03,06,47,0.00
2006,02,03,06,48,0.00
2006,02,03,06,49,0.00
2006,02,03,06,50,0.00
2006,02,03,06,51,0.00
2006,02,03,06,52,0.00
2006,02,03,06,53,0.00
2006,02,03,06,54,0.80
2006,02,03,06,55,2.20
2006,02,03,06,56,2.10
2006,02,03,06,57,2.50
2006,02,03,06,58,2.40
2006,02,03,06,59,2.50
2006,02,03,07,00,1.60
2006,02,03,07,01,0.00
2006,02,03,07,02,0.00
2006,02,03,07,03,0.00
2006,02,03,07,04,0.20
2006,02,03,07,05,0.60
2006,02,03,07,06,0.00
2006,02,03,07,07,0.00
2006,02,03,07,08,0.10
2006,02,03,07,09,1.10
2006,02,03,07,10,2.00
2006,02,03,07,11,2.20
2006,02,03,07,12,1.40
2006,02,03,07,13,0.00
2006,02,03,07,14,0.20
2006,02,03,07,15,1.90
2006,02,03,07,16,2.20
2006,02,03,07,17,2.20
2006,02,03,07,18,2.10
2006,02,03,07,19,2.00
2006,02,03,07,20,1.20
2006,02,03,07,21,0.00
2006,02,03,07,22,0.00
2006,02,03,07,23,0.30
2006,02,03,07,24,0.00
2006,02,03,07,25,0.00
2006,02,03,07,26,0.00
2006,02,03,07,27,0.00
2006,02,03,07,28,0.20
2006,02,03,07,29,0.20
2006,02,03,07,30,0.00
2006,02,03,07,31,0.00
2006,02,03,07,32,0.00
2006,02,03,07,33,0.00
2006,02,03,07,34,0.80
2006,02,03,07,35,2.50
2006,02,03,07,36,2.90
2006,02,03,07,37,2.70
2006,02,03,07,38,2.60
2006,02,03,07,39,1.30
2006,02,03,07,40,0.40
2006,02,03,07,41,0.00
2006,02,03,07,42,0.00
2006,02,03,07,43,0.00
2006,02,03,07,44,0.10
2006,02,03,07,45,0.90
2006,02,03,07,46,1.10
2006,02,03,07,47,1.20
2006,02,03,07,48,1.40
2006,02,03,07,49,2.70
2006,02,03,07,50,4.10
2006,02,03,07,51,4.90
2006,02,03,07,52,4.10
2006,02,03,07,53,3.60
2006,02,03,07,54,2.70
2006,02,03,07,55,1.90
2006,02,03,07,56,0.70
2006,02,03,07,57,0.00
2006,02,03,07,58,0.00
2006,02,03,07,59,0.00
2006,02,03,08,00,0.00
2006,02,03,08,01,0.00
2006,02,03,08,02,0.00
2006,02,03,08,03,0.00
2006,02,03,08,04,0.00
2006,02,03,08,05,0.00
2006,02,03,08,06,0.00
2006,02,03,08,07,0.90
2006,02,03,08,08,0.50
2006,02,03,08,09,0.10
2006,02,03,08,10,1.20
2006,02,03,08,11,0.90
2006,02,03,08,12,0.00
2006,02,03,08,13,0.00
2006,02,03,08,14,0.00
2006,02,03,08,15,0.00
2006,02,03,08,16,0.00
2006,02,03,08,17,0.00
2006,02,03,08,18,0.10
2006,02,03,08,19,0.70
2006,02,03,08,20,1.30
2006,02,03,08,21,0.90
2006,02,03,08,22,0.00
2006,02,03,08,23,0.00
2006,02,03,08,24,0.00
2006,02,03,08,25,0.00
2006,02,03,08,26,0.00
2006,02,03,08,27,0.00
2006,02,03,08,28,0.00
2006,02,03,08,29,0.00
2006,02,03,08,30,0.00
2006,02,03,08,31,0.00
2006,02,03,08,32,0.00
2006,02,03,08,33,0.00
2006,02,03,08,34,0.00
2006,02,03,08,35,0.00
2006,02,03,08,36,0.00
2006,02,03,08,37,0.00
2006,02,03,08,38,0.30
2006,02,03,08,39,0.30
2006,02,03,08,40,0.00
2006,02,03,08,41,0.30
2006,02,03,08,42,0.30
2006,02,03,08,43,0.00
2006,02,03,08,44,0.00
2006,02,03,08,45,0.00
2006,02,03,08,46,0.00
2006,02,03,08,47,0.00
2006,02,03,08,48,0.00
2006,02,03,08,49,0.00
2006,02,03,08,50,0.00
2006,02,03,08,51,0.00
2006,02,03,08,52,0.00
2006,02,03,08,53,0.00
2006,02,03,08,54,0.00
2006,02,03,08,55,0.00
2006,02,03,08,56,0.00
2006,02,03,08,57,0.00
2006,02,03,08,58,0.00
2006,02,03,08,59,0.00
2006,02,03,09,00,0.00
2006,02,03,09,01,0.00
2006,02,03,09,02,0.00
2006,02,03,09,03,0.00
2006,02,03,09,04,0.00
2006,02,03,09,05,0.00
2006,02,03,09,06,0.00
2006,02,03,09,07,0.00
2006,02,03,09,08,0.00
2006,02,03,09,09,0.00
2006,02,03,09,10,0.00
2006,02,03,09,11,0.00
2006,02,03,09,12,0.00
2006,02,03,09,13,0.00
2006,02,03,09,14,0.00
2006,02,03,09,15,0.00
2006,02,03,09,16,0.00
2006,02,03,09,17,0.00
2006,02,03,09,18,0.00
2006,02,03,09,19,0.00
2006,02,03,09,20,0.00
2006,02,03,09,21,1.10
2006,02,03,09,22,0.70
2006,02,03,09,23,0.30
2006,02,03,09,24,1.80
2006,02,03,09,25,0.30
2006,02,03,09,26,0.00
2006,02,03,09,27,0.00
2006,02,03,09,28,0.00
2006,02,03,09,29,1.10
2006,02,03,09,30,0.60
2006,02,03,09,31,0.00
2006,02,03,09,32,0.60
2006,02,03,09,33,0.70
2006,02,03,09,34,3.80
2006,02,03,09,35,2.40
2006,02,03,09,36,1.90
2006,02,03,09,37,5.10
2006,02,03,09,38,3.70
2006,02,03,09,39,4.80
2006,02,03,09,40,4.80
2006,02,03,09,41,5.10
2006,02,03,09,42,4.80
2006,02,03,09,43,3.00
2006,02,03,09,44,5.60
2006,02,03,09,45,3.80
2006,02,03,09,46,3.50
2006,02,03,09,47,1.00
2006,02,03,09,48,1.00
2006,02,03,09,49,0.90
2006,02,03,09,50,1.40
2006,02,03,09,51,4.80
2006,02,03,09,52,5.70
2006,02,03,09,53,1.50
2006,02,03,09,54,1.90
2006,02,03,09,55,3.50
2006,02,03,09,56,4.20
2006,02,03,09,57,3.30
2006,02,03,09,58,4.20
2006,02,03,09,59,2.70
2006,02,03,10,00,1.80
2006,02,03,10,01,2.90
2006,02,03,10,02,4.90
2006,02,03,10,03,7.30
2006,02,03,10,04,4.30
2006,02,03,10,05,2.40
2006,02,03,10,06,0.30
2006,02,03,10,07,1.40
2006,02,03,10,08,0.20
2006,02,03,10,09,0.70
2006,02,03,10,10,1.90
2006,02,03,10,11,2.50
2006,02,03,10,12,2.10
2006,02,03,10,13,1.50
2006,02,03,10,14,2.70
2006,02,03,10,15,3.80
2006,02,03,10,16,3.10
2006,02,03,10,17,2.20
2006,02,03,10,18,3.70
2006,02,03,10,19,3.20
2006,02,03,10,20,4.30
2006,02,03,10,21,3.10
2006,02,03,10,22,2.20
2006,02,03,10,23,3.20
2006,02,03,10,24,3.20
2006,02,03,10,25,2.60
2006,02,03,10,26,3.10
2006,02,03,10,27,4.90
2006,02,03,10,28,1.80
2006,02,03,10,29,4.40
2006,02,03,10,30,3.80
2006,02,03,10,31,1.70
2006,02,03,10,32,1.30
2006,02,03,10,33,1.90
2006,02,03,10,34,0.80
2006,02,03,10,35,3.60
2006,02,03,10,36,1.90
2006,02,03,10,37,1.90
2006,02,03,10,38,4.30
2006,02,03,10,39,4.90
2006,02,03,10,40,4.00
2006,02,03,10,41,6.00
2006,02,03,10,42,4.90
2006,02,03,10,43,3.50
2006,02,03,10,44,3.50
2006,02,03,10,45,2.70
2006,02,03,10,46,2.00
2006,02,03,10,47,4.20
2006,02,03,10,48,3.10
2006,02,03,10,49,3.60
2006,02,03,10,50,6.80
2006,02,03,10,51,7.70
2006,02,03,10,52,4.80
2006,02,03,10,53,5.60
2006,02,03,10,54,3.60
2006,02,03,10,55,1.40
2006,02,03,10,56,3.60
2006,02,03,10,57,1.60
2006,02,03,10,58,3.30
2006,02,03,10,59,2.70
2006,02,03,11,00,6.20
2006,02,03,11,01,7.30
2006,02,03,11,02,3.40
2006,02,03,11,03,3.30
2006,02,03,11,04,4.50
2006,02,03,11,05,5.90
2006,02,03,11,06,3.60
2006,02,03,11,07,1.70
2006,02,03,11,08,5.70
2006,02,03,11,09,7.00
2006,02,03,11,10,7.70
2006,02,03,11,11,6.40
2006,02,03,11,12,5.90
2006,02,03,11,13,7.90
2006,02,03,11,14,7.90
2006,02,03,11,15,8.40
2006,02,03,11,16,4.60
2006,02,03,11,17,6.60
2006,02,03,11,18,7.30
2006,02,03,11,19,6.10
2006,02,03,11,20,6.60
2006,02,03,11,21,6.40
2006,02,03,11,22,4.60
2006,02,03,11,23,6.00
2006,02,03,11,24,5.40
2006,02,03,11,25,5.60
2006,02,03,11,26,6.30
2006,02,03,11,27,5.90
2006,02,03,11,28,4.40
2006,02,03,11,29,6.60
2006,02,03,11,30,7.90
2006,02,03,11,31,5.10
2006,02,03,11,32,5.80
2006,02,03,11,33,6.00
2006,02,03,11,34,6.40
2006,02,03,11,35,4.30
2006,02,03,11,36,6.00
2006,02,03,11,37,8.90
2006,02,03,11,38,4.30
2006,02,03,11,39,4.40
2006,02,03,11,40,10.80
2006,02,03,11,41,7.20
2006,02,03,11,42,7.00
2006,02,03,11,43,1.70
2006,02,03,11,44,4.10
2006,02,03,11,45,1.70
2006,02,03,11,46,1.20
2006,02,03,11,47,0.20
2006,02,03,11,48,2.40
2006,02,03,11,49,3.60
2006,02,03,11,50,5.20
2006,02,03,11,51,11.70
2006,02,03,11,52,5.00
2006,02,03,11,53,5.60
2006,02,03,11,54,4.40
2006,02,03,11,55,3.40
2006,02,03,11,56,2.60
2006,02,03,11,57,1.80
2006,02,03,11,58,5.70
2006,02,03,11,59,4.80
2006,02,03,12,00,1.80
2006,02,03,12,01,3.40
2006,02,03,12,02,3.40
2006,02,03,12,03,4.10
2006,02,03,12,04,3.40
2006,02,03,12,05,4.70
2006,02,03,12,06,5.40
2006,02,03,12,07,5.50
2006,02,03,12,08,3.80
2006,02,03,12,09,2.70
2006,02,03,12,10,4.10
2006,02,03,12,11,2.90
2006,02,03,12,12,3.50
2006,02,03,12,13,3.00
2006,02,03,12,14,1.20
2006,02,03,12,15,4.00
2006,02,03,12,16,4.10
2006,02,03,12,17,4.10
2006,02,03,12,18,4.50
2006,02,03,12,19,2.40
2006,02,03,12,20,4.10
2006,02,03,12,21,3.90
2006,02,03,12,22,5.90
2006,02,03,12,23,7.30
2006,02,03,12,24,5.80
2006,02,03,12,25,6.40
2006,02,03,12,26,3.30
2006,02,03,12,27,0.20
2006,02,03,12,28,3.70
2006,02,03,12,29,4.40
2006,02,03,12,30,3.20
2006,02,03,12,31,2.30
2006,02,03,12,32,4.10
2006,02,03,12,33,2.90
2006,02,03,12,34,0.90
2006,02,03,12,35,1.90
2006,02,03,12,36,3.50
2006,02,03,12,37,5.20
2006,02,03,12,38,4.30
2006,02,03,12,39,2.70
2006,02,03,12,40,4.60
2006,02,03,12,41,5.20
2006,02,03,12,42,4.60
2006,02,03,12,43,2.70
2006,02,03,12,44,3.40
2006,02,03,12,45,4.60
2006,02,03,12,46,3.10
2006,02,03,12,47,4.20
2006,02,03,12,48,2.60
2006,02,03,12,49,4.30
2006,02,03,12,50,3.70
2006,02,03,12,51,2.90
2006,02,03,12,52,4.50
2006,02,03,12,53,3.30
2006,02,03,12,54,3.70
2006,02,03,12,55,2.50
2006,02,03,12,56,3.10
2006,02,03,12,57,1.30
2006,02,03,12,58,2.50
2006,02,03,12,59,7.70
2006,02,03,13,00,4.70
2006,02,03,13,01,3.90
2006,02,03,13,02,3.20
2006,02,03,13,03,3.30
2006,02,03,13,04,3.70
2006,02,03,13,05,2.50
2006,02,03,13,06,6.40
2006,02,03,13,07,4.70
2006,02,03,13,08,5.70
2006,02,03,13,09,6.20
2006,02,03,13,10,4.80
2006,02,03,13,11,4.40
2006,02,03,13,12,8.20
2006,02,03,13,13,5.70
2006,02,03,13,14,5.80
2006,02,03,13,15,4.30
2006,02,03,13,16,7.60
2006,02,03,13,17,3.80
2006,02,03,13,18,3.60
2006,02,03,13,19,4.10
2006,02,03,13,20,4.20
2006,02,03,13,21,3.60
2006,02,03,13,22,6.00
2006,02,03,13,23,6.20
2006,02,03,13,24,7.80
2006,02,03,13,25,6.40
2006,02,03,13,26,1.40
2006,02,03,13,27,3.40
2006,02,03,13,28,5.20
2006,02,03,13,29,1.10
2006,02,03,13,30,1.80
2006,02,03,13,31,2.80
2006,02,03,13,32,3.50
2006,02,03,13,33,2.60
2006,02,03,13,34,2.30
2006,02,03,13,35,4.00
2006,02,03,13,36,4.70
2006,02,03,13,37,3.40
2006,02,03,13,38,3.90
2006,02,03,13,39,4.30
2006,02,03,13,40,2.30
2006,02,03,13,41,3.10
2006,02,03,13,42,1.00
2006,02,03,13,43,2.90
2006,02,03,13,44,5.80
2006,02,03,13,45,4.80
2006,02,03,13,46,4.90
2006,02,03,13,47,3.30
2006,02,03,13,48,2.60
2006,02,03,13,49,5.50
2006,02,03,13,50,3.10
2006,02,03,13,51,2.70
2006,02,03,13,52,3.00
2006,02,03,13,53,4.10
2006,02,03,13,54,4.60
2006,02,03,13,55,4.30
2006,02,03,13,56,8.40
2006,02,03,13,57,2.40
2006,02,03,13,58,2.50
2006,02,03,13,59,2.70
2006,02,03,14,00,0.30
2006,02,03,14,01,1.70
2006,02,03,14,02,3.50
2006,02,03,14,03,7.20
2006,02,03,14,04,6.10
2006,02,03,14,05,3.60
2006,02,03,14,06,5.70
2006,02,03,14,07,3.90
2006,02,03,14,08,1.40
2006,02,03,14,09,5.30
2006,02,03,14,10,2.40
2006,02,03,14,11,1.30
2006,02,03,14,12,3.50
2006,02,03,14,13,2.40
2006,02,03,14,14,9.00
2006,02,03,14,15,10.10
2006,02,03,14,16,5.40
2006,02,03,14,17,5.00
2006,02,03,14,18,7.20
2006,02,03,14,19,6.40
2006,02,03,14,20,5.30
2006,02,03,14,21,3.90
2006,02,03,14,22,5.00
2006,02,03,14,23,5.40
2006,02,03,14,24,3.80
2006,02,03,14,25,9.30
2006,02,03,14,26,7.00
2006,02,03,14,27,6.20
2006,02,03,14,28,3.30
2006,02,03,14,29,4.10
2006,02,03,14,30,3.50
2006,02,03,14,31,5.50
2006,02,03,14,32,6.20
2006,02,03,14,33,4.20
2006,02,03,14,34,3.50
2006,02,03,14,35,4.00
2006,02,03,14,36,3.90
2006,02,03,14,37,4.30
2006,02,03,14,38,3.90
2006,02,03,14,39,2.80
2006,02,03,14,40,5.60
2006,02,03,14,41,8.60
2006,02,03,14,42,5.30
2006,02,03,14,43,4.90
2006,02,03,14,44,5.10
2006,02,03,14,45,3.60
2006,02,03,14,46,4.80
2006,02,03,14,47,3.70
2006,02,03,14,48,2.20
2006,02,03,14,49,2.00
2006,02,03,14,50,4.20
2006,02,03,14,51,4.20
2006,02,03,14,52,4.00
2006,02,03,14,53,2.90
2006,02,03,14,54,8.50
2006,02,03,14,55,10.30
2006,02,03,14,56,7.40
2006,02,03,14,57,4.70
2006,02,03,14,58,5.10
2006,02,03,14,59,3.50
2006,02,03,15,00,6.60
2006,02,03,15,01,9.00
2006,02,03,15,02,3.90
2006,02,03,15,03,4.70
2006,02,03,15,04,6.30
2006,02,03,15,05,5.30
2006,02,03,15,06,3.60
2006,02,03,15,07,4.80
2006,02,03,15,08,5.60
2006,02,03,15,09,4.80
2006,02,03,15,10,6.20
2006,02,03,15,11,2.50
2006,02,03,15,12,7.70
2006,02,03,15,13,7.00
2006,02,03,15,14,3.60
2006,02,03,15,15,2.40
2006,02,03,15,16,3.00
2006,02,03,15,17,5.70
2006,02,03,15,18,8.70
2006,02,03,15,19,3.40
2006,02,03,15,20,5.20
2006,02,03,15,21,5.80
2006,02,03,15,22,5.70
2006,02,03,15,23,8.50
2006,02,03,15,24,5.60
2006,02,03,15,25,5.20
2006,02,03,15,26,7.20
2006,02,03,15,27,6.40
2006,02,03,15,28,4.20
2006,02,03,15,29,8.30
2006,02,03,15,30,3.90
2006,02,03,15,31,4.70
2006,02,03,15,32,8.80
2006,02,03,15,33,10.90
2006,02,03,15,34,7.80
2006,02,03,15,35,6.70
2006,02,03,15,36,2.70
2006,02,03,15,37,6.40
2006,02,03,15,38,10.50
2006,02,03,15,39,5.80
2006,02,03,15,40,8.40
2006,02,03,15,41,4.40
2006,02,03,15,42,1.50
2006,02,03,15,43,3.90
2006,02,03,15,44,5.60
2006,02,03,15,45,11.60
2006,02,03,15,46,6.90
2006,02,03,15,47,3.40
2006,02,03,15,48,6.70
2006,02,03,15,49,11.20
2006,02,03,15,50,5.50
2006,02,03,15,51,4.70
2006,02,03,15,52,8.50
2006,02,03,15,53,3.70
2006,02,03,15,54,5.50
2006,02,03,15,55,4.50
2006,02,03,15,56,6.20
2006,02,03,15,57,5.30
2006,02,03,15,58,0.90
2006,02,03,15,59,4.30
2006,02,03,16,00,4.90
2006,02,03,16,01,3.40
2006,02,03,16,02,3.60
2006,02,03,16,03,4.70
2006,02,03,16,04,4.90
2006,02,03,16,05,7.00
2006,02,03,16,06,4.70
2006,02,03,16,07,10.90
2006,02,03,16,08,8.40
2006,02,03,16,09,6.70
2006,02,03,16,10,2.80
2006,02,03,16,11,0.30
2006,02,03,16,12,4.10
2006,02,03,16,13,4.30
2006,02,03,16,14,6.90
2006,02,03,16,15,5.60
2006,02,03,16,16,6.30
2006,02,03,16,17,3.00
2006,02,03,16,18,3.60
2006,02,03,16,19,5.60
2006,02,03,16,20,6.00
2006,02,03,16,21,2.80
2006,02,03,16,22,5.50
2006,02,03,16,23,9.40
2006,02,03,16,24,8.60
2006,02,03,16,25,3.40
2006,02,03,16,26,3.90
2006,02,03,16,27,1.70
2006,02,03,16,28,3.60
2006,02,03,16,29,8.80
2006,02,03,16,30,3.90
2006,02,03,16,31,2.40
2006,02,03,16,32,3.10
2006,02,03,16,33,6.30
2006,02,03,16,34,3.10
2006,02,03,16,35,1.70
2006,02,03,16,36,2.20
2006,02,03,16,37,5.50
2006,02,03,16,38,6.40
2006,02,03,16,39,6.40
2006,02,03,16,40,7.10
2006,02,03,16,41,11.30
2006,02,03,16,42,7.10
2006,02,03,16,43,11.10
2006,02,03,16,44,11.00
2006,02,03,16,45,8.30
2006,02,03,16,46,7.00
2006,02,03,16,47,15.20
2006,02,03,16,48,9.90
2006,02,03,16,49,6.80
2006,02,03,16,50,13.20
2006,02,03,16,51,10.80
2006,02,03,16,52,3.00
2006,02,03,16,53,7.60
2006,02,03,16,54,6.40
2006,02,03,16,55,4.30
2006,02,03,16,56,7.70
2006,02,03,16,57,4.10
2006,02,03,16,58,4.60
2006,02,03,16,59,15.80
2006,02,03,17,00,10.20
2006,02,03,17,01,6.40
2006,02,03,17,02,9.40
2006,02,03,17,03,5.30
2006,02,03,17,04,5.90
2006,02,03,17,05,7.00
2006,02,03,17,06,4.60
2006,02,03,17,07,6.30
2006,02,03,17,08,11.70
2006,02,03,17,09,11.00
2006,02,03,17,10,5.20
2006,02,03,17,11,3.80
2006,02,03,17,12,6.00
2006,02,03,17,13,7.40
2006,02,03,17,14,5.80
2006,02,03,17,15,5.40
2006,02,03,17,16,9.30
2006,02,03,17,17,5.20
2006,02,03,17,18,5.10
2006,02,03,17,19,2.60
2006,02,03,17,20,0.80
2006,02,03,17,21,0.10
2006,02,03,17,22,0.60
2006,02,03,17,23,1.50
2006,02,03,17,24,3.90
2006,02,03,17,25,1.20
2006,02,03,17,26,2.90
2006,02,03,17,27,4.20
2006,02,03,17,28,1.60
2006,02,03,17,29,4.10
2006,02,03,17,30,1.40
2006,02,03,17,31,2.20
2006,02,03,17,32,3.60
2006,02,03,17,33,4.30
2006,02,03,17,34,7.80
2006,02,03,17,35,3.10
2006,02,03,17,36,3.10
2006,02,03,17,37,0.80
2006,02,03,17,38,5.20
2006,02,03,17,39,3.90
2006,02,03,17,40,2.30
2006,02,03,17,41,5.40
2006,02,03,17,42,6.20
2006,02,03,17,43,5.60
2006,02,03,17,44,2.30
2006,02,03,17,45,6.00
2006,02,03,17,46,3.90
2006,02,03,17,47,9.60
2006,02,03,17,48,4.30
2006,02,03,17,49,4.90
2006,02,03,17,50,4.00
2006,02,03,17,51,6.10
2006,02,03,17,52,4.80
2006,02,03,17,53,5.40
2006,02,03,17,54,3.50
2006,02,03,17,55,4.20
2006,02,03,17,56,5.20
2006,02,03,17,57,6.70
2006,02,03,17,58,6.80
2006,02,03,17,59,3.50
2006,02,03,18,00,2.30
2006,02,03,18,01,7.20
2006,02,03,18,02,10.40
2006,02,03,18,03,9.70
2006,02,03,18,04,4.30
2006,02,03,18,05,6.10